Home   Weather   Tampere   Past weeks

Flag for Finland Past Weather in Tampere, Finland — Yesterday and Last 2 Weeks

Now
48 °F

Passing clouds.


Feels Like: 46 °F
Forecast: 49 / 58 °F
Wind: 6 mph from South

Location: Tampere / Pirkkala

Current Time: Sep 25, 2016 at 3:25:41 AM

Latest Report: Sep 25, 2016 at 2:50 AM


Visibility: N/A

Pressure: 30.12 "Hg

Humidity: 87%

Dew Point: 45 °F

Location of TampereLocation

Past Weather in Tampere — Graph

°F

Tampere Temperature Yesterday

Maximum temperature yesterday: 50 °F (at 2:50 PM)
Minimum temperature yesterday: 43 °F (at 3:50 AM)
Average temperature yesterday: 46 °F

High & Low Weather Summary for the Past Weeks

 TemperatureHumidityPressure
High70 °F (Sep 11, 1:50 PM)100% (Sep 10, 6:20 AM)30.27 "Hg (Sep 10, 6:20 AM)
Low32 °F (Sep 18, 5:20 AM)43% (Sep 13, 3:20 PM)29.89 "Hg (Sep 11, 4:50 PM)
Average50 °F82%30.11 "Hg
* Reported Sep 10 2:20 AM — Sep 25 2:20 AM, Tampere, Weather by CustomWeather, © 2016

Note: Actual official high and low records may vary slightly from our data, if they occured in-between our weather recording intervals... More about our weather records

Advertising

Tampere Weather History for the Previous 24 Hours

Scroll right to see more
 ConditionsComfort  
Time TempWeatherWind HumidityBarometerVisibility
2:20 AM
Sun, Sep 25
48 °FMostly cloudy.6 mph87%30.12 "HgN/A
1:50 AM48 °FPassing clouds.6 mph87%30.12 "HgN/A
1:20 AM48 °FOvercast.3 mph87%30.15 "HgN/A
12:50 AM48 °FPartly cloudy.5 mph87%30.15 "HgN/A
12:20 AM48 °FOvercast.5 mph87%30.12 "HgN/A
11:50 PM
Sat, Sep 24
46 °FPassing clouds.3 mph93%30.12 "HgN/A
11:20 PM48 °FOvercast.3 mph87%30.12 "HgN/A
10:50 PM46 °FPassing clouds.3 mph93%30.12 "HgN/A
10:20 PM46 °FMostly cloudy.5 mph93%30.12 "HgN/A
9:50 PM46 °FPassing clouds.5 mph87%30.12 "HgN/A
9:20 PM46 °FMostly cloudy.5 mph87%30.12 "HgN/A
8:50 PM46 °FPassing clouds.3 mph87%30.12 "HgN/A
8:20 PM46 °FMostly cloudy.3 mph87%30.12 "HgN/A
7:50 PM48 °FOvercast.5 mph82%30.12 "HgN/A
7:20 PM48 °FOvercast.3 mph76%30.09 "HgN/A
6:50 PM48 °FOvercast.3 mph82%30.09 "HgN/A
6:20 PM48 °FMostly cloudy.6 mph82%30.09 "HgN/A
5:50 PM48 °FMostly cloudy.3 mph82%30.09 "HgN/A
5:20 PM48 °FMostly cloudy.6 mph76%30.07 "HgN/A
4:50 PM50 °FOvercast.5 mph76%30.07 "HgN/A
4:20 PM48 °FMostly cloudy.6 mph76%30.07 "HgN/A
3:50 PM50 °FOvercast.8 mph71%30.07 "HgN/A
3:20 PM50 °FOvercast.6 mph71%30.07 "HgN/A
2:50 PM50 °FOvercast.7 mph76%30.07 "HgN/A
2:20 PM48 °FOvercast.9 mph82%30.04 "HgN/A
1:50 PM48 °FCloudy.8 mph82%30.04 "HgN/A
1:20 PM48 °FCloudy.9 mph82%30.04 "HgN/A
12:50 PM48 °FMostly cloudy.12 mph82%30.04 "HgN/A
12:20 PM48 °FCloudy.12 mph82%30.01 "HgN/A
11:50 AM48 °FPartly sunny.8 mph82%30.01 "HgN/A
11:20 AM48 °FOvercast.9 mph82%30.01 "HgN/A
10:50 AM48 °FPartly sunny.8 mph82%29.98 "HgN/A
10:20 AM46 °FBroken clouds.8 mph87%29.98 "HgN/A
9:50 AM46 °FCloudy.8 mph82%29.98 "HgN/A
9:20 AM45 °FMostly cloudy.8 mph87%29.98 "HgN/A
8:50 AM45 °FPartly sunny.7 mph87%29.98 "HgN/A
8:20 AM45 °FMostly cloudy.7 mph87%29.95 "HgN/A
7:50 AM45 °FMostly cloudy.8 mph81%29.95 "HgN/A
7:20 AM45 °FMore clouds than sun.8 mph81%29.95 "HgN/A
6:50 AM45 °FMostly cloudy.8 mph81%29.95 "HgN/A
6:20 AM43 °FOvercast.7 mph87%29.92 "HgN/A
5:50 AM43 °FMostly cloudy.6 mph93%29.92 "HgN/A
5:20 AM43 °FLight rain. Mostly cloudy.6 mph87%29.92 "HgN/A
4:50 AM43 °FMostly cloudy.6 mph87%29.92 "HgN/A
4:20 AM43 °FPartly cloudy.6 mph87%29.92 "HgN/A
3:50 AM43 °FPartly cloudy.6 mph87%29.92 "HgN/A
3:20 AM45 °FMostly cloudy.6 mph81%29.92 "HgN/A
Weather by CustomWeather, © 2016

See weather overviewHow to use our weather pages